BAW59T EGLL-EDDH

Flight info

Callsign BAW59T
Flight time 1h 11m
Altitude 29000
Route BPK6J BPK Q295 SOMVA DCT MAVAS DCT GASTU DCT OSTOR T904 RIBSO RIBSO7A
Aircraft F28/M-SDFIRWY/H

Departure

Time 2026-05-07 17:56
Airport London Heathrow Airport (EGLL)

Arrival

Time 2026-05-07 19:07
Airport Hamburg Helmut Schmidt Airport (EDDH)
Time Latitude Longitude Altitude Speed Heading
2026-05-07 17:26 51.46828 -0.48680 83 ft 0 kts 180°
2026-05-07 17:42 51.46829 -0.48680 83 ft 2 kts 180°
2026-05-07 17:42 51.46853 -0.48680 83 ft 2 kts 180°
2026-05-07 17:43 51.46873 -0.48674 83 ft 4 kts 229°
2026-05-07 17:43 51.46877 -0.48638 83 ft 4 kts 270°
2026-05-07 17:43 51.46877 -0.48625 83 ft 0 kts 270°
2026-05-07 17:47 51.46877 -0.48632 83 ft 5 kts 270°
2026-05-07 17:47 51.46875 -0.48721 83 ft 6 kts 249°
2026-05-07 17:47 51.46840 -0.48751 85 ft 7 kts 181°
2026-05-07 17:48 51.46802 -0.48750 85 ft 2 kts 178°
2026-05-07 17:48 51.46801 -0.48750 85 ft 0 kts 178°
2026-05-07 17:50 51.46768 -0.48749 83 ft 5 kts 179°
2026-05-07 17:50 51.46735 -0.48749 83 ft 5 kts 180°
2026-05-07 17:50 51.46704 -0.48749 83 ft 4 kts 180°
2026-05-07 17:50 51.46680 -0.48749 83 ft 3 kts 180°
2026-05-07 17:51 51.46658 -0.48749 83 ft 4 kts 180°
2026-05-07 17:51 51.46618 -0.48759 86 ft 6 kts 197°
2026-05-07 17:51 51.46595 -0.48771 86 ft 0 kts 198°
2026-05-07 17:52 51.46587 -0.48775 85 ft 4 kts 198°
2026-05-07 17:53 51.46533 -0.48788 83 ft 11 kts 167°
2026-05-07 17:53 51.46481 -0.48707 87 ft 10 kts 106°
2026-05-07 17:53 51.46478 -0.48649 83 ft 0 kts 89°
2026-05-07 17:55 51.46478 -0.48580 84 ft 23 kts 90°
2026-05-07 17:55 51.46478 -0.47960 84 ft 87 kts 93°
2026-05-07 17:56 51.46468 -0.46675 115 ft 146 kts 92°
2026-05-07 17:56 51.46508 -0.44870 746 ft 178 kts 90°
2026-05-07 17:56 51.46537 -0.42724 1588 ft 209 kts 83°
2026-05-07 17:56 51.47187 -0.40534 2604 ft 227 kts 52°
2026-05-07 17:57 51.48229 -0.38636 3716 ft 226 kts 46°
2026-05-07 17:57 51.48957 -0.37445 4410 ft 226 kts 45°
2026-05-07 17:57 51.50380 -0.34876 5348 ft 237 kts 57°
2026-05-07 17:57 51.51237 -0.32470 5245 ft 253 kts 63°
2026-05-07 17:58 51.52001 -0.29906 5190 ft 256 kts 66°
2026-05-07 17:58 51.52716 -0.27280 5280 ft 256 kts 67°
2026-05-07 17:58 51.53395 -0.24626 5510 ft 258 kts 68°
2026-05-07 17:58 51.54063 -0.21948 5765 ft 259 kts 66°
2026-05-07 17:59 51.55168 -0.19680 5948 ft 264 kts 37°
2026-05-07 17:59 51.56822 -0.18378 6014 ft 267 kts 21°
2026-05-07 17:59 51.58591 -0.17388 6019 ft 271 kts 18°
2026-05-07 17:59 51.60419 -0.16609 6020 ft 273 kts 13°
2026-05-07 18:00 51.62278 -0.15961 6023 ft 274 kts 12°
2026-05-07 18:00 51.64141 -0.15320 6023 ft 270 kts 12°
2026-05-07 18:00 51.65932 -0.14670 6015 ft 264 kts 13°
2026-05-07 18:00 51.67709 -0.13980 6007 ft 260 kts 14°
2026-05-07 18:01 51.69454 -0.13255 6004 ft 257 kts 15°
2026-05-07 18:01 51.71190 -0.12505 6309 ft 257 kts 15°
2026-05-07 18:01 51.72911 -0.11741 6951 ft 258 kts 16°
2026-05-07 18:01 51.74515 -0.10438 7422 ft 262 kts 42°
2026-05-07 18:02 51.75901 -0.05089 8466 ft 267 kts 83°
2026-05-07 18:02 51.76117 -0.02091 9049 ft 270 kts 85°
2026-05-07 18:02 51.76294 0.00958 9590 ft 276 kts 86°
2026-05-07 18:03 51.76473 0.04064 10139 ft 282 kts 87°
2026-05-07 18:03 51.76665 0.07396 10138 ft 312 kts 86°
2026-05-07 18:03 51.76888 0.11043 10134 ft 340 kts 85°
2026-05-07 18:03 51.77148 0.14811 10964 ft 336 kts 85°
2026-05-07 18:04 51.77430 0.18576 11656 ft 339 kts 84°
2026-05-07 18:04 51.77732 0.22361 12307 ft 342 kts 84°
2026-05-07 18:04 51.78052 0.26200 12957 ft 346 kts 84°
2026-05-07 18:04 51.78377 0.30064 13629 ft 348 kts 84°
2026-05-07 18:05 51.78704 0.33966 14207 ft 352 kts 84°
2026-05-07 18:05 51.79022 0.37902 14724 ft 355 kts 84°
2026-05-07 18:05 51.79339 0.41886 15238 ft 359 kts 84°
2026-05-07 18:05 51.79663 0.45907 15746 ft 363 kts 84°
2026-05-07 18:06 51.79991 0.49982 16240 ft 367 kts 84°
2026-05-07 18:06 51.80315 0.54083 16749 ft 370 kts 84°
2026-05-07 18:06 51.80638 0.58226 17221 ft 374 kts 84°
2026-05-07 18:06 51.80977 0.62348 17740 ft 376 kts 81°
2026-05-07 18:07 51.81617 0.66460 18240 ft 380 kts 73°
2026-05-07 18:07 51.82492 0.70519 18651 ft 383 kts 70°
2026-05-07 18:07 51.83476 0.74528 19076 ft 385 kts 68°
2026-05-07 18:07 51.84527 0.78534 19466 ft 388 kts 67°
2026-05-07 18:08 51.85604 0.82544 19886 ft 390 kts 67°
2026-05-07 18:08 51.86679 0.86592 20268 ft 392 kts 67°
2026-05-07 18:08 51.87754 0.90669 20650 ft 395 kts 67°
2026-05-07 18:08 51.88831 0.94771 21017 ft 397 kts 67°
2026-05-07 18:09 51.89910 0.98902 21379 ft 399 kts 67°
2026-05-07 18:09 51.90972 1.03068 21749 ft 401 kts 68°
2026-05-07 18:09 51.92025 1.07261 22079 ft 403 kts 68°
2026-05-07 18:09 51.93098 1.11467 22399 ft 405 kts 68°
2026-05-07 18:10 51.94187 1.15695 22725 ft 407 kts 67°
2026-05-07 18:10 51.94911 1.18506 22930 ft 409 kts 68°
2026-05-07 18:10 51.95992 1.22785 23234 ft 411 kts 68°
2026-05-07 18:10 51.97073 1.27091 23528 ft 413 kts 68°
2026-05-07 18:11 51.98172 1.31408 23787 ft 415 kts 67°
2026-05-07 18:11 51.99267 1.35743 24040 ft 416 kts 68°
2026-05-07 18:11 52.00354 1.40112 24278 ft 418 kts 68°
2026-05-07 18:11 52.01458 1.44479 24511 ft 419 kts 68°
2026-05-07 18:12 52.02562 1.48866 24759 ft 420 kts 68°
2026-05-07 18:12 52.03657 1.53276 25004 ft 421 kts 68°
2026-05-07 18:12 52.04745 1.57680 25269 ft 421 kts 68°
2026-05-07 18:12 52.05837 1.62105 25486 ft 422 kts 68°
2026-05-07 18:13 52.06932 1.66543 25685 ft 424 kts 68°
2026-05-07 18:13 52.08040 1.70986 25888 ft 425 kts 68°
2026-05-07 18:13 52.09157 1.75452 26082 ft 426 kts 68°
2026-05-07 18:13 52.10254 1.79882 26273 ft 428 kts 68°
2026-05-07 18:14 52.11363 1.84373 26465 ft 429 kts 68°
2026-05-07 18:14 52.12469 1.88867 26732 ft 428 kts 68°
2026-05-07 18:14 52.13576 1.93373 26919 ft 429 kts 68°
2026-05-07 18:14 52.14684 1.97882 27088 ft 430 kts 68°
2026-05-07 18:15 52.15794 2.02412 27270 ft 431 kts 68°
2026-05-07 18:15 52.16904 2.06946 27437 ft 432 kts 69°
2026-05-07 18:15 52.18021 2.11507 27602 ft 433 kts 69°
2026-05-07 18:15 52.19139 2.16078 27762 ft 434 kts 69°
2026-05-07 18:16 52.20257 2.20653 27928 ft 435 kts 69°
2026-05-07 18:16 52.21378 2.25246 28070 ft 437 kts 69°
2026-05-07 18:16 52.22502 2.29856 28222 ft 438 kts 69°
2026-05-07 18:16 52.23626 2.34471 28367 ft 439 kts 69°
2026-05-07 18:17 52.24753 2.39100 28509 ft 439 kts 69°
2026-05-07 18:17 52.25871 2.43719 28866 ft 435 kts 69°
2026-05-07 18:17 52.26963 2.48326 29043 ft 435 kts 69°
2026-05-07 18:18 52.29145 2.57590 29091 ft 437 kts 70°
2026-05-07 18:18 52.31208 2.66906 29092 ft 436 kts 72°
2026-05-07 18:19 52.32962 2.76324 29083 ft 435 kts 75°
2026-05-07 18:19 52.34589 2.85851 29098 ft 435 kts 75°
2026-05-07 18:20 52.36242 2.95376 29091 ft 435 kts 75°
2026-05-07 18:20 52.37899 3.04892 29085 ft 435 kts 75°
2026-05-07 18:21 52.39577 3.14409 29092 ft 436 kts 72°
2026-05-07 18:21 52.41795 3.23670 29090 ft 438 kts 66°
2026-05-07 18:22 52.44350 3.32746 29089 ft 439 kts 65°
2026-05-07 18:22 52.46965 3.41797 29091 ft 439 kts 65°
2026-05-07 18:23 52.49551 3.50805 29099 ft 440 kts 66°
2026-05-07 18:23 52.52077 3.59944 29095 ft 440 kts 66°
2026-05-07 18:24 52.54621 3.69083 29096 ft 440 kts 66°
2026-05-07 18:24 52.57141 3.78243 29093 ft 440 kts 66°
2026-05-07 18:25 52.59667 3.87406 29096 ft 440 kts 66°
2026-05-07 18:25 52.62175 3.96587 29097 ft 440 kts 67°
2026-05-07 18:26 52.64697 4.05759 29094 ft 440 kts 66°
2026-05-07 18:26 52.67205 4.14955 29091 ft 440 kts 67°
2026-05-07 18:27 52.69703 4.24181 29092 ft 440 kts 67°
2026-05-07 18:27 52.72190 4.33394 29094 ft 438 kts 67°
2026-05-07 18:28 52.74648 4.42563 29084 ft 436 kts 67°
2026-05-07 18:28 52.77087 4.51690 29087 ft 433 kts 67°
2026-05-07 18:29 52.79498 4.60722 29094 ft 431 kts 67°
2026-05-07 18:29 52.81911 4.69777 29100 ft 430 kts 67°
2026-05-07 18:30 52.84315 4.78819 29101 ft 429 kts 67°
2026-05-07 18:30 52.86713 4.87858 29101 ft 429 kts 68°
2026-05-07 18:31 52.89082 4.96920 29102 ft 429 kts 68°
2026-05-07 18:31 52.91454 5.05981 29099 ft 428 kts 68°
2026-05-07 18:32 52.93789 5.15056 29102 ft 427 kts 68°
2026-05-07 18:32 52.96135 5.24104 29100 ft 427 kts 68°
2026-05-07 18:33 52.98463 5.33145 29094 ft 426 kts 69°
2026-05-07 18:33 53.00612 5.42296 29094 ft 425 kts 71°
2026-05-07 18:34 53.02648 5.51506 29099 ft 425 kts 71°
2026-05-07 18:34 53.04716 5.60697 29095 ft 424 kts 70°
2026-05-07 18:35 53.06777 5.69884 29096 ft 425 kts 70°
2026-05-07 18:35 53.08837 5.79096 29098 ft 425 kts 70°
2026-05-07 18:36 53.10879 5.88253 29103 ft 425 kts 71°
2026-05-07 18:36 53.12921 5.97476 29106 ft 424 kts 71°
2026-05-07 18:37 53.14951 6.06676 29099 ft 423 kts 71°
2026-05-07 18:37 53.16977 6.15868 29099 ft 422 kts 71°
2026-05-07 18:38 53.18979 6.25053 29099 ft 421 kts 71°
2026-05-07 18:38 53.20980 6.34232 29101 ft 421 kts 71°
2026-05-07 18:39 53.22958 6.43429 29108 ft 421 kts 71°
2026-05-07 18:39 53.24936 6.52625 29106 ft 421 kts 71°
2026-05-07 18:40 53.27031 6.61738 29092 ft 421 kts 61°
2026-05-07 18:40 53.28820 6.65601 29106 ft 423 kts 47°
2026-05-07 18:40 53.30918 6.69053 29105 ft 423 kts 44°
2026-05-07 18:41 53.35221 6.75791 29106 ft 424 kts 43°
2026-05-07 18:41 53.37132 6.79443 29103 ft 423 kts 58°
2026-05-07 18:41 53.38293 6.83940 29108 ft 422 kts 77°
2026-05-07 18:42 53.38977 6.93674 29114 ft 421 kts 84°
2026-05-07 18:42 53.40075 7.03328 29106 ft 423 kts 76°
2026-05-07 18:43 53.41746 7.12791 29103 ft 424 kts 73°
2026-05-07 18:43 53.43575 7.22199 29101 ft 424 kts 72°
2026-05-07 18:44 53.45410 7.31615 29105 ft 425 kts 72°
2026-05-07 18:44 53.47168 7.41043 28327 ft 420 kts 73°
2026-05-07 18:44 53.48026 7.45703 27452 ft 415 kts 73°
2026-05-07 18:45 53.48871 7.50310 26851 ft 410 kts 73°
2026-05-07 18:45 53.49722 7.54860 26222 ft 407 kts 73°
2026-05-07 18:45 53.50557 7.59373 25775 ft 402 kts 73°
2026-05-07 18:45 53.51381 7.63809 25339 ft 395 kts 72°
2026-05-07 18:46 53.52191 7.68207 24838 ft 393 kts 73°
2026-05-07 18:46 53.52996 7.72595 24387 ft 392 kts 72°
2026-05-07 18:46 53.53802 7.76966 23941 ft 390 kts 73°
2026-05-07 18:46 53.54585 7.81272 23396 ft 391 kts 72°
2026-05-07 18:47 53.55391 7.85629 23018 ft 390 kts 72°
2026-05-07 18:47 53.56200 7.90028 22694 ft 388 kts 73°
2026-05-07 18:47 53.56967 7.94308 22342 ft 389 kts 73°
2026-05-07 18:47 53.57753 7.98698 21841 ft 395 kts 73°
2026-05-07 18:48 53.58561 8.03143 21374 ft 399 kts 73°
2026-05-07 18:48 53.59362 8.07631 20921 ft 402 kts 73°
2026-05-07 18:48 53.60153 8.12106 20469 ft 393 kts 73°
2026-05-07 18:48 53.60935 8.16454 20032 ft 383 kts 73°
2026-05-07 18:49 53.61711 8.20739 19586 ft 384 kts 73°
2026-05-07 18:49 53.62481 8.25073 19158 ft 389 kts 73°
2026-05-07 18:49 53.63226 8.29303 18761 ft 390 kts 73°
2026-05-07 18:49 53.63993 8.33683 18359 ft 390 kts 73°
2026-05-07 18:50 53.64773 8.38048 17899 ft 389 kts 73°
2026-05-07 18:50 53.65555 8.42378 17337 ft 383 kts 73°
2026-05-07 18:50 53.66309 8.46637 16787 ft 375 kts 73°
2026-05-07 18:50 53.67037 8.50795 16239 ft 365 kts 73°
2026-05-07 18:51 53.67743 8.54861 15706 ft 361 kts 73°
2026-05-07 18:51 53.68454 8.58959 15185 ft 368 kts 73°
2026-05-07 18:51 53.69179 8.63142 14695 ft 375 kts 73°
2026-05-07 18:51 53.69913 8.67367 14163 ft 372 kts 73°
2026-05-07 18:52 53.70634 8.71521 13595 ft 366 kts 73°
2026-05-07 18:52 53.71341 8.75597 13014 ft 357 kts 73°
2026-05-07 18:52 53.72027 8.79554 12588 ft 345 kts 73°
2026-05-07 18:52 53.72683 8.83339 12203 ft 335 kts 73°
2026-05-07 18:53 53.73328 8.87064 11815 ft 327 kts 73°
2026-05-07 18:53 53.73959 8.90710 11428 ft 320 kts 73°
2026-05-07 18:53 53.74579 8.94292 11187 ft 318 kts 73°
2026-05-07 18:53 53.75203 8.97902 11102 ft 319 kts 73°
2026-05-07 18:54 53.75819 9.01465 10712 ft 307 kts 73°
2026-05-07 18:54 53.76404 9.04842 10292 ft 296 kts 73°
2026-05-07 18:54 53.76919 9.08155 9848 ft 287 kts 83°
2026-05-07 18:54 53.76709 9.11501 9339 ft 291 kts 110°
2026-05-07 18:55 53.75612 9.14369 8879 ft 289 kts 135°
2026-05-07 18:55 53.74125 9.16555 8457 ft 284 kts 140°
2026-05-07 18:55 53.72578 9.18589 8041 ft 280 kts 142°
2026-05-07 18:55 53.71000 9.20505 7622 ft 277 kts 144°
2026-05-07 18:56 53.69432 9.22375 7216 ft 274 kts 139°
2026-05-07 18:56 53.68136 9.24701 6804 ft 271 kts 128°
2026-05-07 18:56 53.66950 9.27143 6410 ft 267 kts 127°
2026-05-07 18:56 53.65826 9.29534 6053 ft 248 kts 127°
2026-05-07 18:57 53.64771 9.31792 5666 ft 244 kts 126°
2026-05-07 18:57 53.63744 9.33995 5344 ft 240 kts 126°
2026-05-07 18:57 53.62730 9.36198 5014 ft 237 kts 126°
2026-05-07 18:57 53.61733 9.38382 4673 ft 234 kts 126°
2026-05-07 18:58 53.60749 9.40540 4335 ft 231 kts 126°
2026-05-07 18:58 53.60087 9.41987 4104 ft 229 kts 126°
2026-05-07 18:58 53.59122 9.44098 3778 ft 227 kts 126°
2026-05-07 18:58 53.58161 9.46193 3446 ft 225 kts 126°
2026-05-07 18:59 53.57196 9.48302 3134 ft 231 kts 126°
2026-05-07 18:59 53.56213 9.50452 3022 ft 232 kts 126°
2026-05-07 18:59 53.55245 9.52565 3004 ft 218 kts 126°
2026-05-07 18:59 53.54373 9.54458 2990 ft 199 kts 126°
2026-05-07 19:00 53.53549 9.56240 2981 ft 186 kts 126°
2026-05-07 19:00 53.52717 9.58042 2992 ft 201 kts 126°
2026-05-07 19:00 53.51853 9.59915 2999 ft 205 kts 126°
2026-05-07 19:00 53.50977 9.61825 2999 ft 206 kts 123°
2026-05-07 19:01 53.50498 9.64039 3003 ft 202 kts 99°
2026-05-07 19:01 53.50305 9.66373 3013 ft 201 kts 96°
2026-05-07 19:01 53.50382 9.68689 3038 ft 199 kts 77°
2026-05-07 19:01 53.50726 9.70882 3031 ft 188 kts 75°
2026-05-07 19:02 53.51089 9.72894 3027 ft 174 kts 69°
2026-05-07 19:02 53.51642 9.74712 3028 ft 176 kts 61°
2026-05-07 19:02 53.52262 9.76434 3023 ft 167 kts 59°
2026-05-07 19:02 53.52874 9.78040 2978 ft 163 kts 59°
2026-05-07 19:03 53.53551 9.79690 2711 ft 178 kts 54°
2026-05-07 19:03 53.54330 9.81326 2470 ft 174 kts 52°
2026-05-07 19:03 53.55059 9.82784 2221 ft 155 kts 51°
2026-05-07 19:03 53.55704 9.84052 2026 ft 131 kts 52°
2026-05-07 19:04 53.56302 9.85249 1848 ft 137 kts 52°
2026-05-07 19:04 53.56923 9.86504 1663 ft 140 kts 52°
2026-05-07 19:04 53.57548 9.87768 1469 ft 144 kts 52°
2026-05-07 19:04 53.58180 9.89040 1274 ft 135 kts 52°
2026-05-07 19:05 53.58762 9.90207 1096 ft 123 kts 52°
2026-05-07 19:05 53.59295 9.91277 899 ft 114 kts 52°
2026-05-07 19:05 53.59799 9.92305 761 ft 118 kts 51°
2026-05-07 19:05 53.60338 9.93396 611 ft 126 kts 50°
2026-05-07 19:06 53.60907 9.94546 423 ft 127 kts 50°
2026-05-07 19:06 53.62029 9.96789 98 ft 119 kts 50°
2026-05-07 19:06 53.62491 9.97724 48 ft 85 kts 50°
2026-05-07 19:07 53.62791 9.98329 50 ft 55 kts 51°
2026-05-07 19:07 53.63006 9.98764 48 ft 43 kts 50°
2026-05-07 19:07 53.63179 9.99112 50 ft 35 kts 50°
2026-05-07 19:07 53.63287 9.99403 48 ft 27 kts 77°
2026-05-07 19:08 53.63279 9.99611 48 ft 10 kts 99°
2026-05-07 19:08 53.63274 9.99662 48 ft 0 kts 98°
2026-05-07 19:09 53.63272 9.99695 47 ft 9 kts 93°
2026-05-07 19:09 53.63281 9.99762 48 ft 1 kts 79°
2026-05-07 19:09 53.63274 9.99771 48 ft 2 kts 178°
2026-05-07 19:09 53.63230 9.99763 46 ft 11 kts 168°
2026-05-07 19:10 53.63156 9.99817 48 ft 12 kts 153°
2026-05-07 19:10 53.63075 9.99889 47 ft 14 kts 152°
2026-05-07 19:10 53.62984 9.99966 48 ft 16 kts 153°
2026-05-07 19:10 53.62883 10.00052 49 ft 17 kts 157°
2026-05-07 19:11 53.62780 10.00139 49 ft 16 kts 152°
2026-05-07 19:11 53.62696 10.00213 49 ft 10 kts 152°
2026-05-07 19:11 53.62656 10.00262 49 ft 3 kts 94°
2026-05-07 19:11 53.62670 10.00308 45 ft 5 kts 60°
2026-05-07 19:12 53.62680 10.00340 48 ft 0 kts 61°